TimeEDT,TemperatureF,Dew PointF,Humidity,Sea Level PressureIn,VisibilityMPH,Wind Direction,Wind SpeedMPH,Gust SpeedMPH,PrecipitationIn,Events,Conditions,WindDirDegrees,DateUTC
12:51 AM,45.0,36.0,71,30.01,10.0,WSW,6.9,-,N/A,,Clear,240,2013-05-27 04:51:00
1:51 AM,44.1,36.0,73,30.03,10.0,West,10.4,-,N/A,,Clear,260,2013-05-27 05:51:00
2:51 AM,41.0,36.0,82,30.03,10.0,West,11.5,-,N/A,,Clear,280,2013-05-27 06:51:00
3:51 AM,39.9,35.1,83,30.04,10.0,WSW,5.8,-,N/A,,Clear,250,2013-05-27 07:51:00
4:51 AM,39.9,35.1,83,30.06,10.0,West,4.6,-,N/A,,Scattered Clouds,280,2013-05-27 08:51:00
5:51 AM,41.0,36.0,82,30.07,10.0,West,3.5,-,N/A,,Partly Cloudy,270,2013-05-27 09:51:00
6:51 AM,44.1,37.0,76,30.07,10.0,West,5.8,-,N/A,,Partly Cloudy,280,2013-05-27 10:51:00
7:51 AM,51.1,39.0,63,30.07,10.0,West,16.1,-,N/A,,Partly Cloudy,280,2013-05-27 11:51:00
8:51 AM,55.9,39.9,55,30.07,10.0,WNW,11.5,-,N/A,,Clear,290,2013-05-27 12:51:00
9:51 AM,60.1,41.0,49,30.06,10.0,West,8.1,-,N/A,,Clear,270,2013-05-27 13:51:00
10:51 AM,62.1,36.0,38,30.06,10.0,WNW,11.5,-,N/A,,Clear,300,2013-05-27 14:51:00
11:51 AM,63.0,35.1,35,30.06,10.0,NNW,18.4,24.2,N/A,,Scattered Clouds,340,2013-05-27 15:51:00
12:51 PM,64.9,34.0,32,30.05,10.0,NW,19.6,25.3,N/A,,Partly Cloudy,310,2013-05-27 16:51:00
1:51 PM,64.9,35.1,33,30.04,10.0,NW,12.7,24.2,N/A,,Partly Cloudy,310,2013-05-27 17:51:00
2:51 PM,66.9,36.0,32,30.04,10.0,WNW,15.0,23.0,N/A,,Partly Cloudy,290,2013-05-27 18:51:00
3:51 PM,66.9,35.1,31,30.04,10.0,NNW,13.8,20.7,N/A,,Clear,330,2013-05-27 19:51:00
4:51 PM,66.9,34.0,30,30.04,10.0,NW,16.1,-,N/A,,Partly Cloudy,310,2013-05-27 20:51:00
5:51 PM,66.9,30.9,26,30.05,10.0,NNW,15.0,20.7,N/A,,Clear,330,2013-05-27 21:51:00
6:51 PM,-9999,46.4,N/A,30.08,-9999.0,North,-9999.0,-,N/A,,Unknown,0,2013-05-27 22:51:00
7:51 PM,60.1,34.0,38,30.10,10.0,NW,9.2,-,N/A,,Clear,320,2013-05-27 23:51:00
8:51 PM,60.1,32.0,35,30.12,10.0,WNW,5.8,-,N/A,,Clear,300,2013-05-28 00:51:00
9:51 PM,52.0,37.9,59,30.15,10.0,NNW,3.5,-,N/A,,Clear,340,2013-05-28 01:51:00
10:51 PM,50.0,39.0,66,30.15,10.0,Calm,Calm,-,N/A,,Clear,0,2013-05-28 02:51:00
11:51 PM,48.0,39.0,71,30.17,10.0,WNW,3.5,-,N/A,,Clear,290,2013-05-28 03:51:00